Location: Hope
(40.9110°N, 74.9680°W)
Time: 10:36:16
(UTC-04:00)

N. Korean satellite - Pass Details

Date: 27 January 2019
Orbit: 457 x 508 km, 97.2° (Epoch: 19 April)

Event Time Altitude Azimuth Distance (km) Brightness Sun altitude
Rises 06:25:51 0° 8° (N) 2,604 10.2 -9.6°
Reaches altitude 10° 06:27:58 10° 5° (N) 1,708 9.2 -9.2°
Maximum altitude 06:31:36 63° 285° (WNW) 556 6.6 -8.5°
Drops below altitude 10° 06:35:09 10° 203° (SSW) 1,666 9.2 -7.9°
Sets 06:37:11 0° 200° (SSW) 2,532 10.2 -7.5°
